CYPHCYNM

Guest
Details From CYPH - Inukjuak
To CYNM - MATAGAMI
Flight Number -
Tags generated
Created
Modified
Stats Distance 550 nm / 1,018 km
Max Altitude 35,000 ft / 10,668 m
Waypoints 7
Social Downloads 0
Likes 0
Share VATSIM

Download

Looking for another format? Having issues loading an existing format? Contact us
Advertisement - Login to hide

Notes

Basic altitude profile: - Ascent Rate: 2500ft/min - Ascent Speed: 250kts - Cruise Altitude: 35000ft - Cruise Speed: 420kts - Descent Rate: 1500ft/min - Descent Speed: 250kts Options: - Use NATs: yes - Use PACOTS: yes - Use low airways: yes - Use high airways: yes

Route

CYPH PH RR13 GW J567 NM CYNM

ID Type Via Altitude Latitude Longitude Leg Dist Tot Dist Heading (true) Name
O CYPH APT - 0 ft / 0 m 58.47181˚ -78.07722˚ - 0 nm - Inukjuak
PH NDB - 0 ft / 0 m 58.46778˚ -78.07333˚ 0 nm 0 nm 153° / 153° INUKJUAK NDB
YMU NDB RR13 (AWY-LO) 17,000 ft / 5,182 m 56.53694˚ -76.52306˚ 126 nm 126 nm 156° / 157° UMIUJAQ NDB
GW NDB RR13 (AWY-LO) 18,000 ft / 5,486 m 55.28458˚ -77.75142˚ 85 nm 212 nm 209° / 208° JARPIK NDB
YGL VOR J567 (AWY-HI) 35,000 ft / 10,668 m 53.62550˚ -77.71622˚ 99 nm 312 nm 179° / 179° LA GRANDE RIVIERE VOR-DME
NM NDB J567 (AWY-HI) 18,000 ft / 5,486 m 49.72394˚ -77.74156˚ 234 nm 546 nm 180° / 180° MATAGAMI NDB
O CYNM APT - 0 ft / 0 m 49.76169˚ -77.80250˚ 3 nm 549 nm 314° / 314° MATAGAMI

Altitude Profile

Advertisement - Login to hide

Weather


0- 5 10 15 20 25 30 35+ Temperature / ° C

Clouds and Precipitation
Forecast for 2018-05-27 00:00 UTC. Updated 5 hours ago

Ground ~20,000 ft ~40,000 ft Winds

CYPH

Details ICAO CYPH (YPH)
Name Inukjuak
Region Canada
Timezone America/Montreal (UTC-4.0)
Stats Elevation 78 ft / 24 m (AMSL)
Location 58.471815° -78.077222°
Runways 1
Magnetic Variation 18.028° W

METAR

CYPH 270300Z AUTO 16011KT 9SM OVC110 M03/M06 A3012 RMK SLP202

Decode

TAF

TAF CYPH 262338Z 2700/2712 16008KT P6SM SCT012 BKN120 TEMPO 2700/2701 BKN012 OVC120 FM270100 14010KT P6SM FEW012 BKN120 BECMG 2704/2706 14015KT BECMG 2709/2711 15015G25KT RMK FCST BASED ON AUTO OBS. NXT FCST BY 270600Z

Decode

Departure Runways

ID Width Length Bearing (true) Bearing (mag) Surface Threshold Offset Overrun Length
23 131 ft / 40 m 3,915 ft / 1,193 m 46.70° 64.73° Gravel 0 ft / 0 m 0 ft / 0 m
5 131 ft / 40 m 3,915 ft / 1,193 m 226.71° 244.74° Gravel 0 ft / 0 m 0 ft / 0 m

CYNM

Details ICAO CYNM (YNM)
Name MATAGAMI
Region Canada
Timezone America/Montreal (UTC-4.0)
Stats Elevation 918 ft / 280 m (AMSL)
Location 49.761691° -77.802504°
Runways 1
Magnetic Variation 13.453° W

METAR

CYNM 270300Z AUTO 10004KT 9SM SCT240 09/M01 A2997 RMK SLP160

Decode

TAF

Not found

Destination Runways

ID Width Length Bearing (true) Bearing (mag) Surface Threshold Offset Overrun Length
15 100 ft / 30 m 4,993 ft / 1,522 m 134.24° 147.69° Asphalt 0 ft / 0 m 0 ft / 0 m
33 100 ft / 30 m 4,993 ft / 1,522 m 314.25° 327.70° Asphalt 0 ft / 0 m 0 ft / 0 m